Погода Окунев Нос

Поиск расширенной информации на нашем сайте:

Полезная информация:

Новости сайта



02.01.2020
Опубликован Долгосрочный прогноз погоды по городам России и ближнего зарубежья на январь 2020 года.
Карты: Прогноз на январь и февраль 2020 года, Сравнение прогнозируемой аномалии приземной температуры воздуха на январь 2020 года по разным моделям.




Погода Окунев Нос - сегодня

Время (UTC), дата Ветер
(°,м/с) 
Видим.   Явления Облачность Т
(°С)
Тd
(°С)
f(%) Тe
(°С)
Pmin
(гПа)
dP
(гПа)
Po
(мм)
O2
(г/м3)
Тmin Tmax R s Состояние
почвы
09 29.11.20 190 (Ю) 20000 м    9/0 средняя, верхняя 
[Ac As|Ci fib]
-10.1 -11 93 -15  1040.7  0.3  778  327           
12 29.11.20 190 (Ю) 50000 м    9/0 средняя, верхняя 
[Ac und|Ci fib]
-9 -9.9 93 -14  1040  -0.6  778  325           
15 29.11.20 200 (Ю) 50000 м    10/0 средняя 
[Ac As]
-8.2 -9.2 92 -12  1040  778  324    -8.1       
18 29.11.20 180 (Ю) 6-10{11}  50000 м    9/0 средняя 
[Ac As]
-8.4 -9.5 92 -13  1038.2  -1.8  776  324           
00 30.11.20 200 (Ю) 50000 м  позёмок  10/10 330 м 
[St]
-6.9 -7 99 -11  1036.4  -1.2  775  321           
03 30.11.20 210 (ЮЗ) 5-11{12}  50000 м  позёмок  10/10 330 м 
[St]
-5.6 -5.9 98 -10  1036.5  775  320  -8.6      равномерный
сухой снег
100% 
06 30.11.20 190 (Ю) 3{11}  20000 м    10/10 400 м 
[Sc]
-5 -5.2 99 -7  1035.6  -0.8  775  319           
09 30.11.20 190 (Ю) 20000 м    10/10 420 м 
[Sc]
-5.1 -5.5 97 -8  1035.2  -0.5  774  319           
12 30.11.20 190 (Ю) 5{11}  50000 м  позёмок  10/0 средняя 
[Ac As]
-4.8 -5.4 96 -9  1034.5  -0.6  774  318           
15 30.11.20 190 (Ю) 5{10}  50000 м    5/0 средняя, верхняя 
[Ac trans|Ci fib]
-4.5 -5.1 96 -8  1033.1  -1.4  773  317    -4.5       
18 30.11.20 190 (Ю) 50000 м    10/10 1380 м 
[Sc]
-3.5 -4.1 96 -7  1032.8  -0.2  772  316           
00 01.12.20 180 (Ю) 50000 м    10/10 1410 м 
[Sc]
-1.8 -2.8 93 -5  1030  -1.9  770  313           
03 01.12.20 190 (Ю) 5-10{11}  50000 м  позёмок  9/9 1470 м 
[Sc]
-2 -3.3 91 -5  1027.8  -2.1  769  312  -4.6      равномерный
сухой снег
100% 
06 01.12.20 190 (Ю) 5{12}  12000 м  слаб. снег  10/10 500 м 
[Sc]
-2.8 -3.9 92 -6  1027.4  -0.5  768  313           
09 01.12.20 190 (Ю) 6-10{11}  50000 м  позёмок{снег}  10/10 420 м 
[Sc]
-2.8 -3.7 94 -7  1026.8  -0.5  768  313           
12 01.12.20 190 (Ю) 5{10}  50000 м  позёмок{снег}  10/10 480 м 
[Sc]
-2.4 -3.5 92 -6  1025.6  -1.3  767  312           
15 01.12.20 200 (Ю) 29000 м  слаб. снег  10/10 500 м 
[Sc]
-2.4 -3.8 90 -6  1024.5  -1.3  766  312    -1.9       
18 01.12.20 200 (Ю) 5{10}  17000 м  слаб. снег  10/10 540 м 
[Sc]
-3.5 -3.9 97 -7  1023.7  -0.8  766  313           
00 02.12.20 200 (Ю) 50000 м  {снег}  10/10 630 м 
[Sc]
-3.4 -3.8 97 -6  1023.6  0.6  766  313           
03 02.12.20 200 (Ю) 50000 м  в посл. час снег  10/10 600 м 
[Sc]
-2.5 -3.3 94 -6  1023.9  0.4  766  312  -4.3    равномерный
сухой снег
100% 
06 02.12.20 200 (Ю) 20000 м  позёмок{снег}  10/10 720 м 
[Sc]
-2.4 -3.3 94 -6  1024  766  312           
09 02.12.20 200 (Ю) 50000 м  {снег}  10/10 630 м 
[Sc]
-2.8 -3.9 92 -6  1025  767  313           
12 02.12.20 200 (Ю) 50000 м  {снег}  10/10 540 м 
[Sc]
-2.8 -3.8 93 -5  1025.4  0.4  767  313           
15 02.12.20 200 (Ю) 50000 м    10/10 600 м 
[Sc]
-2.4 -3.5 92 -4  1026  0.7  767  312    -2.3       
18 02.12.20 200 (Ю) 50000 м    10/10 480 м 
[Sc]
-1.9 -3 92 -5  1026.7  0.6  768  312           
Время (UTC), дата Ветер
(°,м/с) 
Видим.   Явления Облачность Т
(°С)
Тd
(°С)
f(%) Тe
(°С)
Pmin
(гПа)
dP
(гПа)
Po
(мм)
O2
(г/м3)
Тmin Tmax R s Состояние
почвы

Для получения пояснительной информации подведите курсор к названию столбца.

ПОГОДА Окунев Нос - архив

Всё, что Вы хотите узнать о погоде Окунев Нос - удобно и подробно!

Выберите нужную дату (начиная с 1 января 2019* года) и нажмите кнопку "Найти".
Будут отображены архивные сводки погоды по пункту Окунев Нос, начиная с указанной даты.


Отображать данные в формате CSV (для использования в таблицах Excel)


Внимание! Наш архив погоды предназначен исключительно для личного некоммерческого использования в познавательных целях. Если Вам необходимы официальные справки о состоянии погоды (для производственных, юридических, коммерческих и т.п. целей), обращайтесь в органы Росгидромета.

*Примечание: данная дата относится к архиву по метеостанциям СССР (Россия, СНГ, Балтия).
Архив по метеостанциям Зарубежной Европы и Азии (кроме Китая) хранится 10 дней, по другим регионам земного шара (Китай, Африка, Америка, Австралия, Океания) - 1 день.

Окунев Нос - район местоположения метеостанции


Название, широта, долгота, высота метеостанции:
Окунев Нос 66.2°ш. 52.6°д. 20 м над ур. моря [Российская Федерация]

Дополнительная информация

В oтличие oт бoльшинства пoгoдных сайтoв мы публикуем пoдрoбную метеoинфoрмацию в детальнoм прoфессиoнальнoм фoрмате.

Характеристики температуры и влажнoсти вoздуха измеряются на высoте 2 м в тени вдали oт зданий и деревьев.
Скoрoсть ветра измеряется на высoте 10 м (на урoвне рoста челoвека скoрoсть ветра ниже в 1.5-2 раза). Если метеoстанция нахoдится в гoрoде или в лесу, тo скoрoсть ветра занижена на 2-4 м/с пo сравнению с oткрытым местoм. Скoрoсть ветра над акватoриями крупных рек и oзёр, а также на вершинах хoлмoв на 2-5 м/с выше, чем в oбычных услoвиях.
Атмoсфернoе давление в разных тoчках местнoсти мoжет значительнo oтличаться oт давления на метеoстанции, в зависимoсти oт услoвий рельефа (при пoдъёме на 10 м давление пoнижается примернo на 1 мм рт.ст.).